Location: Unspecified
(42.3650°N, 71.1030°W)
Time: 17:08:05
(UTC+00:00)

Tiros 1 - Pass Details

Date: 29 June 2024
Orbit: 624 x 656 km, 48.4° (Epoch: 13 July)

Event Time Altitude Azimuth Distance (km) Brightness Sun altitude
Rises 02:55:05 0° 250° (WSW) 2,896 10.6 -19.4°
Reaches altitude 10° 02:57:25 10° 252° (WSW) 1,990 9.8 -19.6°
Maximum altitude 03:01:58 70° 336° (NNW) 664 7.3 -20.0°
Drops below altitude 10° 03:06:33 10° 61° (ENE) 2,000 9.7 -20.4°
Sets 03:08:54 0° 64° (ENE) 2,911 10.5 -20.6°
